Location: Newark
(33.6439°N, 114.9881°W)
Time: 07:03:20
(UTC+00:00)

Tiros 1 - Pass Details

Date: 30 July 2019
Orbit: 631 x 664 km, 48.4° (Epoch: 24 August)

Event Time Altitude Azimuth Distance (km) Brightness Sun altitude
Rises 00:15:02 0° 295° (WNW) 2,993 11.6 28.9°
Reaches altitude 10° 00:17:47 10° 281° (W) 2,075 11.5 28.3°
Maximum altitude 00:21:32 23° 229° (SW) 1,390 9.8 27.6°
Drops below altitude 10° 00:25:16 10° 177° (S) 2,056 9.7 26.8°
Sets 00:27:59 0° 163° (SSE) 2,959 10.3 26.2°
